DELTA 1 DEB, 13532

Orbit data source: Space-Track

DELTA 1 DEB, 13532 is space debris in LEO originally from a launch on Thu, 29 Jul 1976 UTC launched from the Air Force Western Test Range (AFWTR). Debris objects in space refer to the collection of defunct objects orbiting the Earth. Examples of debris include non-operational satellites, rocket bodies, and fragments generated from explosions, collisions, or faulty payload assembly.

Loading next visibility...
Identifier
13532, 1976-077EE
Orbit
LEO
Country
Flag of USUS
Related business
Manufacturer
Unknown
Mission
Spacecraft
Bus & Motor
Unknown
Mass
Unknown
Launch date (UTC)
1976-07-29 (50 years ago)
Launch vehicle
Unknown
Launch site
Air Force Western Test Range (AFWTR)
Object type
Payload
Rocket body
Debris
Shape & HBR
Unknown shape, 0.1 m
Radar Cross Section
Small (<0.1 m²)

Expand to show TLE details & history
Last TLE update: 13 hours ago

TLE from 13 hours ago
0 DELTA 1 DEB
1 13532U 76077EE  26126.34503243  .00000279  00000-0  37700-2 0  9999
2 13532 102.2640  64.8014 0287210  69.8798  78.7782 11.94097596956652
Epoch: 2026-05-06T08:16Z
TLE epoch observation values (Epoch: 2026-05-06T08:16:50.801Z)
Latitude
27.43561°
Longitude
-97.1688°
Altitude
1,671.652 km
Speed
7.057 km/s
True Right ascension
16h 44m 59s
True Declination
27° 18' 40"
Sunlit
Object was in full shadow at epoch
Visualization orbit readout
Latitude
Unknown
Longitude
Unknown
Altitude
Unknown
Speed
Unknown
Apparent Right ascension
Unknown
Apparent Declination
Unknown
Sunlit
N/A
Visualization observer readout
Local Sidereal Time
04:51:02
Azimuth
Unknown
Elevation
Unknown
Doppler factor
Unknown
Orbital elements
Apogee altitude
1,937.2 km
Perigee altitude
1,472.886 km
Semi-major axis
8,083.18 km
Eccentricity
0.02872
Inclination
102.264°
RAAN
64.8014°
Arg. of periapsis
69.8798°
True anomaly
82.02742°
Mean anomaly
78.7782°
Eccentric anomaly
80.40075°
Mean motion
2.98655 °/min
Orbital period
120.54 mins
BSTAR
0.00377
Loading maneuver chart data...
Computing Atmospheric mass density...
Loading historical data...
Loading historical data...
Loading historical data...
Loading historical data...
Loading historical data...
Loading historical data...
Loading historical data...

Documentation

Showing up to 5 results
|